Starlink 32424

operational
NORAD ID: 61548 Int'l Des: 2024-184 Owner: SPXS Country: US Constellation: starlink
LEOCIRCULAR

About Starlink 32424

Description loading...

Live Position

Loading 3D Globe...

Upcoming Passes

Altitude History

Altitude vs Time

uPlot chart will show altitude changes over time

Two-Line Element Set

1 61548U 24184S 25315.07373238 .00000933 00000-0 43617-4 0 9992
2 61548 53.1613 205.0951 0001437 81.8223 278.2941 15.30200626 60347
Epoch: Nov 11, 2025 • Age: 13 hours

Current Status

Altitude 477.2 km
Velocity 7.63 km/s
Sub-Earth Point 35.14°N, 76.52°E
Launch Date Oct 15, 2024
Age 1 years
Type internet

Technical Details

Classification Payload
Mass 730.00 kg
Dry Mass 700.00 kg
Total Mass 730.00 kg
Length 0.30 m
Diameter 4.10 m
Span 29.00 m
Shape Box + pan
Manufacturer SPXS
Bus Type Starlink V2M
Phase Status In Orbit
Owner/State SPXS/US

Large Constellations

Loading constellations...